Regional Weather Roundup
Issued by NWS

Home | Current Version | Previous Version | Text Only | Print | Product List | Glossary Off
Versions: 1 2 3 4 5 6 7 8 9 10 11 12 13 14 15 16 17 18 19 20 21 22 23 24 25 26 27 28 29 30 31 32 33 34 35 36 37 38 39 40 41 42 43 44 45 46 47 48 49 50

000
ASUS43 KLSX 261959
RWRMO

WEATHER SUMMARY FOR MISSOURI
NATIONAL WEATHER SERVICE SPRINGFIELD MO
300 PM CDT SUN MAR 26 2017

NOTE: "FAIR" INDICATES FEW OR NO CLOUDS BELOW 12,000 FEET WITH NO
       SIGNIFICANT WEATHER AND/OR OBSTRUCTIONS TO VISIBILITY.
       CURRENT SKY AND/OR WEATHER CONDITIONS ARE NOT AVAILABLE FOR
       CHILLICOTHE AND FARMINGTON.

MOZ001>031-035>038-043-044-053-054-262100-
...NORTHERN AND WESTERN MISSOURI...

CITY           SKY/WX    TMP DP  RH WIND       PRES   REMARKS
KANSAS CTY INT CLOUDY    51  44  77 W7        29.91F
KANSAS C DTWN  CLOUDY    53  44  71 W7        29.91F
LEE`S SUMMIT   CLOUDY    53  45  74 W7        29.91F
ST JOSEPH      CLOUDY    49  43  80 NW8       29.92F
CHILLICOTHE      N/A     51  44  77 W7        29.92F
KIRKSVILLE     CLOUDY    47  44  90 W8        29.90S

$$
MOZ066>068-077>081-088>096-101>105-262100-
...SOUTHWEST MISSOURI...

CITY           SKY/WX    TMP DP  RH WIND       PRES   REMARKS
SPRINGFIELD    CLOUDY    64  50  60 SW10      29.90F
JOPLIN         CLOUDY    65  48  54 SW7       29.88F
BRANSON        PTSUNNY   66  46  48 W8        29.92F

$$
MOZ032>034-039>042-045>050-055>058-069>072-262100-
...CENTRAL MISSOURI...

CITY           SKY/WX    TMP DP  RH WIND       PRES   REMARKS
COLUMBIA       CLOUDY    58  51  78 W15       29.90F
JEFFERSON CITY CLOUDY    60  49  66 W8        29.91F
ROLLA          CLOUDY    59  50  72 VRB7      29.90S
SEDALIA        CLOUDY    55  48  77 W7        29.92F
WARRENSBURG    CLOUDY    54  45  71 SW7       29.91F
OSAGE BEACH    CLOUDY   N/A N/A N/A W7        29.93S

$$
MOZ051-052-059>065-262100-
...EAST CENTRAL MISSOURI...

CITY           SKY/WX    TMP DP  RH WIND       PRES   REMARKS
ST LOUIS INTL  CLOUDY    61  49  64 W14       29.90S
SPIRIT OF STL  CLOUDY    60  51  72 W8        29.90R
ST CHARLES     CLOUDY    59  51  75 SW8       29.89S

$$
MOZ072>076-082>087-097>100-106>115-262100-
...SOUTH CENTRAL AND SOUTHEAST MISSOURI...

CITY           SKY/WX    TMP DP  RH WIND       PRES   REMARKS
CAPE GIRARDEAU PTSUNNY   62  48  60 SW13      29.94S
FARMINGTON     CLOUDY    59  48  67 SW10      29.93S
POPLAR BLUFF   MOSUNNY   64  50  60 VRB5      29.94F
WEST PLAINS    MOSUNNY   65  49  56 S13G20    29.93F

$$




USA.gov is the U.S. government's official web portal to all federal, state and local government web resources and services.